Hourly Weather Roundup
Issued by NWS Central Illinois

Home | Current Version | Previous Version | Text Only | Print | Product List | Glossary On
Versions: 1 2 3 4 5 6 7 8 9 10 11 12 13 14 15 16 17 18 19 20 21 22 23 24 25 26 27 28 29 30 31 32 33 34 35 36 37 38 39 40 41 42 43 44 45 46 47 48 49 50
000
NZUS43 KILX 200210
HWRILX

AREA WEATHER ROUNDUP
NATIONAL WEATHER SERVICE, LINCOLN IL
800 PM CST WED NOV 19 2014


CITY           SKY/WX    TMP DP  RH WIND       PRES   REMARKS
BLOOMINGTON    CLOUDY    24  12  60 W20G25    30.09R WCI  10
CHAMPAIGN      CLOUDY    26  16  65 W17       30.10R WCI  13
DECATUR        CLOUDY    28  16  60 NW15G22   30.12  WCI  16
FLORA          FAIR      30  23  75 NW8       30.14R WCI  22
GALESBURG      CLOUDY    23  16  73 W15       30.09S WCI  10
JACKSONVILLE   CLOUDY    28  15  57 NW13G21   30.15R WCI  18
LACON          CLOUDY    25  13  60 W13G18    30.08R WCI  13
LAWRENCEVILLE  FAIR      30  22  72 NW10      30.13R WCI  21
LITCHFIELD     FAIR      26  17  69 W7        30.14R WCI  18
$$


CITY           SKY/WX    TMP DP  RH WIND       PRES   REMARKS
LINCOLN        CLOUDY    27  15  59 W13G21    30.14R WCI  16
MACOMB         CLOUDY    25  15  64 W13       30.14S WCI  14
MATTOON        FAIR      23  15  71 NW10      30.11R WCI  12
MT CARMEL AP   FAIR      34  23  64 NW9       30.13R WCI  26
OLNEY-NOBLE AP FAIR      28  23  80 NW7       30.14R WCI  21
PARIS          CLOUDY    26  19  77 W12       30.11R WCI  15
PEORIA         CLOUDY    26  12  55 W13G20    30.11R WCI  15
PONTIAC        CLOUDY    26  16  66 W16G23    30.07S WCI  13
RANTOUL        CLOUDY    27  15  62 W18G28    30.09R WCI  13
ROBINSON       FAIR      29  21  71 NW9G20    30.14R WCI  21
SPRINGFIELD    CLOUDY    27  14  58 NW16G22   30.15R WCI  15
TAYLORVILLE    CLOUDY    27  18  69 W8        30.14S WCI  18
$$

...REGIONAL REPORTS...


CITY           SKY/WX    TMP DP  RH WIND       PRES   REMARKS
CHICAGO O`HARE MOCLDY    23   9  55 W13G24    29.97R WCI  11
KANKAKEE       CLOUDY    25  14  63 W21       30.04S WCI  10
MOLINE         FAIR      23  14  68 W14       30.07R WCI  11
MOUNT VERNON   FAIR      34  18  51 CALM      30.13R
PITTSFIELD     MOCLDY    27  16  63 NW10G16   30.16R WCI  17
QUINCY         CLOUDY    25  12  58 NW15      30.15  WCI  13
ROCKFORD       MOCLDY    23  10  57 W9        30.00R WCI  13
$$


CITY           SKY/WX    TMP DP  RH WIND       PRES   REMARKS
BURLINGTON     CLOUDY    25  15  66 W9        30.11S WCI  15
CEDAR RAPIDS   MOCLDY    21  15  78 W14       30.05R WCI   8
DES MOINES     FAIR      24  13  62 NW15      30.12S WCI  11
KIRKSVILLE     CLOUDY    25  14  63 W12G24    30.16R WCI  14
OTTUMWA        CLOUDY    24  13  62 NW13G18   30.12R WCI  12
ST LOUIS       FAIR      30  16  56 NW5       30.15S WCI  25
$$


CITY           SKY/WX    TMP DP  RH WIND       PRES   REMARKS
TERRE HAUTE    FAIR      27  15  61 NW15G23   30.11R WCI  15
EVANSVILLE     CLOUDY    38  25  59 NW9       30.13R WCI  31
INDIANAPOLIS   CLOUDY    28  17  63 W24G31    30.04R WCI  14
LAFAYETTE      CLOUDY    24  14  65 W20G33    30.06R WCI  10
MADISON        FAIR      21  11  65 W9        29.91R WCI  11
MILWAUKEE      FAIR      23   9  55 W14       29.91R WCI  11
$$





USA.gov is the U.S. government's official web portal to all federal, state and local government web resources and services.